Flag for Morocco Weather past 2 weeks in Marrakech, Morocco

Now
72 °F

Passing clouds.


Feels Like: 72 °F
Forecast: 67 / 94 °F
Wind: 8 mph from West

Location: Marrakech Airport

Current Time: Aug 2, 2015 at 9:58:17 AM

Latest Report: Aug 2, 2015 at 9:30 AM


Visibility: N/A

Pressure: 29.95 "Hg

Humidity: 78%

Dew point: 64 °F

Location of MarrakechLocation

Historic Weather in Marrakech — Graph

°F

Marrakech temperature yesterday

Maximum temperature yesterday: 97 °F (at 6:30 PM)
Minimum temperature yesterday: 70 °F (at 5:30 AM)
Average temperature yesterday: 81 °F

Past Weeks' High & Low Weather Summary

 TemperatureHumidityPressure
High115 °F (Jul 22, 5:00 PM)94% (Jul 29, 7:00 AM)30.09 "Hg (Jul 29, 7:00 AM)
Low66 °F (Jul 26, 7:00 AM)8% (Jul 21, 5:00 PM)29.80 "Hg (Aug 1, 5:00 PM)
Average88 °F44%29.97 "Hg
* Reported Jul 18 7:00 AM — Aug 2 8:30 AM, Marrakech, Weather by CustomWeather, © 2015

Note: Actual official high and low records may vary slightly from our data, if they occured in-between our weather recording intervals... More about our weather records

Advertising

Marrakech weather history for previous 24 hours

 ConditionsComfort  
Time TempWeatherWind HumidityBarometerVisibility
8:30 AM
Sun, Aug 2
68 °FSunny.7 mph88%29.95 "Hg10 mi
8:00 AM68 °FSunny.7 mph88%29.95 "Hg10 mi
7:30 AM66 °FSunny.5 mph88%29.95 "Hg10 mi
7:00 AM66 °FSunny.6 mph88%29.92 "Hg10 mi
6:30 AM66 °FClear.7 mph88%29.92 "Hg10 mi
6:00 AM68 °FClear.7 mph83%29.92 "Hg10 mi
5:30 AM68 °FClear.8 mph83%29.92 "Hg10 mi
5:00 AM68 °FClear.7 mph83%29.92 "Hg10 mi
4:30 AM68 °FMild.7 mph83%29.92 "HgN/A
4:00 AM68 °FClear.7 mph83%29.92 "Hg10 mi
3:30 AM68 °FClear.9 mph83%29.92 "Hg10 mi
3:00 AM70 °FClear.10 mph78%29.92 "Hg10 mi
2:30 AM70 °FClear.10 mph78%29.92 "Hg10 mi
2:00 AM72 °FClear.10 mph73%29.92 "Hg10 mi
1:30 AM73 °FClear.10 mph69%29.92 "Hg10 mi
1:00 AM73 °FClear.8 mph69%29.92 "Hg10 mi
12:30 AM75 °FPassing clouds.8 mph65%29.92 "HgN/A
12:00 AM77 °FPassing clouds.5 mph61%29.92 "HgN/A
11:00 PM
Sat, Aug 1
79 °FPassing clouds.6 mph58%29.92 "HgN/A
10:30 PM81 °FPassing clouds.5 mph54%29.92 "HgN/A
10:00 PM82 °FPassing clouds.9 mph48%29.89 "HgN/A
9:30 PM84 °FPassing clouds.10 mph48%29.86 "HgN/A
9:00 PM86 °FPassing clouds.8 mph43%29.86 "HgN/A
8:30 PM90 °FHot.12 mph38%29.86 "HgN/A
8:00 PM93 °FPassing clouds.7 mph34%29.83 "HgN/A
7:30 PM95 °FPassing clouds.6 mph34%29.83 "HgN/A
7:00 PM95 °FPassing clouds.7 mph34%29.83 "HgN/A
6:30 PM97 °FPassing clouds.5 mph32%29.80 "HgN/A
6:00 PM95 °FPassing clouds.5 mph36%29.80 "Hg6 mi
5:30 PM95 °FPassing clouds.7 mph36%29.80 "Hg6 mi
5:00 PM95 °FPassing clouds.6 mph36%29.80 "HgN/A
4:30 PM93 °FPassing clouds.6 mph39%29.83 "HgN/A
4:00 PM93 °FPassing clouds.5 mph41%29.83 "HgN/A
3:30 PM91 °FSunny.6 mph44%29.83 "Hg10 mi
3:00 PM91 °FSunny.5 mph41%29.83 "Hg10 mi
2:30 PM88 °FSunny.3 mph49%29.86 "Hg10 mi
2:00 PM86 °FSunny.6 mph52%29.86 "Hg10 mi
1:30 PM86 °FSunny.3 mph49%29.86 "Hg10 mi
1:00 PM84 °FPassing clouds.6 mph51%29.89 "HgN/A
12:30 PM82 °FPassing clouds.6 mph55%29.89 "HgN/A
12:00 PM81 °FPassing clouds.8 mph58%29.89 "HgN/A
11:30 AM79 °FSunny.8 mph61%29.89 "Hg10 mi
11:00 AM77 °FPassing clouds.7 mph65%29.89 "HgN/A
10:30 AM77 °FPassing clouds.6 mph65%29.89 "HgN/A
10:00 AM75 °FPassing clouds.7 mph69%29.89 "HgN/A
9:30 AM73 °FPassing clouds.7 mph74%29.89 "HgN/A
9:00 AM72 °FSunny.7 mph78%29.89 "Hg10 mi
Weather by CustomWeather, © 2015

See weather overviewHow to use our weather pages